When you browse on this site, cookies collect data to enhance your experience and personalize the content and advertising you see.
Visit our Privacy Policy to learn more. By continuing to use the site, you agree to this use of cookies and data.
  • In Slovakia
  • List of Countries
  • For 7 days
  • Water Temperature
  • Weather Map
  • Weather Widgets
  • user-avatar
    Login

    Hourly Weather Etchmiadzin

    Today, 5 June, Friday

    Time Temperature Precipitation Wind Pressure Humidity
    00:00 +19°C° 0 mm 2 mps 686 mmHg 41%
    01:00 +18°C° 0 mm 2 mps 686 mmHg 42%
    02:00 +18°C° 0 mm 2 mps 686 mmHg 43%
    03:00 +18°C° 0 mm 2 mps 686 mmHg 44%
    04:00 +18°C° 0 mm 2 mps 687 mmHg 46%
    05:00 +20°C° 0 mm 1 mps 687 mmHg 47%
    06:00 +21°C° 0 mm 1 mps 687 mmHg 48%
    07:00 +23°C° 0 mm 1 mps 688 mmHg 42%
    08:00 +24°C° 0 mm 2 mps 688 mmHg 36%
    09:00 +26°C° 0 mm 2 mps 688 mmHg 30%
    10:00 +27°C° 0 mm 3 mps 688 mmHg 27%
    11:00 +28°C° 0 mm 3 mps 688 mmHg 25%
    12:00 +29°C° 0 mm 4 mps 688 mmHg 23%
    13:00 +29°C° 0 mm 3 mps 688 mmHg 23%
    14:00 +29°C° 0 mm 3 mps 688 mmHg 24%
    15:00 +29°C° 0 mm 3 mps 688 mmHg 24%
    16:00 +29°C° 0 mm 3 mps 688 mmHg 26%
    17:00 +28°C° 0 mm 3 mps 688 mmHg 27%
    18:00 +28°C° 0 mm 3 mps 688 mmHg 29%
    19:00 +26°C° 0 mm 3 mps 689 mmHg 32%
    20:00 +23°C° 0 mm 2 mps 689 mmHg 35%
    21:00 +20°C° 0 mm 2 mps 689 mmHg 38%
    22:00 +19°C° 0 mm 2 mps 689 mmHg 41%
    23:00 +19°C° 0 mm 3 mps 689 mmHg 43%

    Tomorrow, 6 June, Saturday

    Time Temperature Precipitation Wind Pressure Humidity
    00:00 +18°C° 0 mm 3 mps 689 mmHg 46%
    01:00 +17°C° 0 mm 2 mps 689 mmHg 48%
    02:00 +17°C° 0 mm 2 mps 689 mmHg 49%
    03:00 +16°C° 0 mm 2 mps 689 mmHg 51%
    04:00 +17°C° 0 mm 2 mps 689 mmHg 50%
    05:00 +18°C° 0 mm 2 mps 689 mmHg 50%
    06:00 +18°C° 0 mm 2 mps 690 mmHg 50%
    07:00 +20°C° 0 mm 2 mps 690 mmHg 45%
    08:00 +23°C° 0 mm 2 mps 690 mmHg 40%
    09:00 +25°C° 0 mm 2 mps 690 mmHg 35%
    10:00 +26°C° 0.1 mm 2 mps 690 mmHg 32%
    11:00 +28°C° 0.1 mm 2 mps 690 mmHg 28%
    12:00 +29°C° 0.1 mm 2 mps 690 mmHg 25%
    13:00 +29°C° 0.1 mm 2 mps 690 mmHg 24%
    14:00 +30°C° 0.1 mm 2 mps 690 mmHg 22%
    15:00 +30°C° 0.1 mm 2 mps 689 mmHg 21%
    16:00 +29°C° 0 mm 3 mps 689 mmHg 26%
    17:00 +28°C° 0 mm 4 mps 689 mmHg 30%
    18:00 +27°C° 0 mm 5 mps 689 mmHg 35%
    19:00 +25°C° 0 mm 5 mps 689 mmHg 38%
    20:00 +22°C° 0 mm 4 mps 690 mmHg 41%
    21:00 +20°C° 0 mm 4 mps 690 mmHg 43%
    22:00 +19°C° 0 mm 3 mps 690 mmHg 43%
    23:00 +19°C° 0 mm 3 mps 690 mmHg 42%

    Day after tomorrow, 7 June, Sunday

    Time Temperature Precipitation Wind Pressure Humidity
    00:00 +18°C° 0 mm 2 mps 689 mmHg 42%
    01:00 +17°C° 0 mm 2 mps 689 mmHg 44%
    02:00 +16°C° 0 mm 1 mps 689 mmHg 45%
    03:00 +16°C° 0 mm 1 mps 689 mmHg 47%
    04:00 +18°C° 0 mm 1 mps 689 mmHg 47%
    05:00 +19°C° 0 mm 1 mps 689 mmHg 47%
    06:00 +19°C° 0 mm 1 mps 689 mmHg 47%
    07:00 +21°C° 0 mm 1 mps 689 mmHg 43%
    08:00 +23°C° 0 mm 1 mps 690 mmHg 38%
    09:00 +25°C° 0 mm 1 mps 690 mmHg 34%
    10:00 +26°C° 0 mm 1 mps 690 mmHg 31%
    11:00 +28°C° 0 mm 1 mps 690 mmHg 29%
    12:00 +29°C° 0 mm 1 mps 689 mmHg 27%
    13:00 +30°C° 0 mm 1 mps 689 mmHg 25%
    14:00 +30°C° 0 mm 1 mps 689 mmHg 24%
    15:00 +31°C° 0 mm 1 mps 689 mmHg 22%
    16:00 +30°C° 0 mm 1 mps 688 mmHg 25%
    17:00 +30°C° 0 mm 1 mps 688 mmHg 28%
    18:00 +30°C° 0 mm 1 mps 688 mmHg 31%
    19:00 +27°C° 0 mm 1 mps 688 mmHg 36%
    20:00 +25°C° 0 mm 2 mps 688 mmHg 41%
    21:00 +21°C° 0 mm 2 mps 688 mmHg 46%
    22:00 +21°C° 0 mm 2 mps 688 mmHg 48%
    23:00 +20°C° 0 mm 2 mps 688 mmHg 51%

    8 June, Monday

    Time Temperature Precipitation Wind Pressure Humidity
    00:00 +20°C° 0 mm 2 mps 687 mmHg 53%
    01:00 +19°C° 0 mm 2 mps 687 mmHg 55%
    02:00 +18°C° 0 mm 2 mps 687 mmHg 56%
    03:00 +18°C° 0 mm 2 mps 687 mmHg 58%
    04:00 +20°C° 0 mm 1 mps 687 mmHg 58%
    05:00 +21°C° 0 mm 1 mps 687 mmHg 57%
    06:00 +21°C° 0 mm 1 mps 687 mmHg 57%
    07:00 +23°C° 0 mm 1 mps 687 mmHg 52%
    08:00 +25°C° 0 mm 1 mps 687 mmHg 47%
    09:00 +27°C° 0 mm 1 mps 687 mmHg 42%
    10:00 +28°C° 0 mm 2 mps 687 mmHg 38%
    11:00 +29°C° 0 mm 2 mps 687 mmHg 34%
    12:00 +31°C° 0 mm 2 mps 687 mmHg 30%
    13:00 +31°C° 0 mm 2 mps 687 mmHg 28%
    14:00 +32°C° 0 mm 2 mps 687 mmHg 26%
    15:00 +34°C° 0 mm 2 mps 686 mmHg 23%
    16:00 +32°C° 0 mm 1 mps 686 mmHg 25%
    17:00 +32°C° 0 mm 1 mps 686 mmHg 28%
    18:00 +31°C° 0 mm 1 mps 686 mmHg 30%
    19:00 +29°C° 0 mm 2 mps 686 mmHg 35%
    20:00 +27°C° 0 mm 3 mps 686 mmHg 39%
    21:00 +24°C° 0 mm 3 mps 686 mmHg 44%
    22:00 +24°C° 0 mm 3 mps 686 mmHg 47%
    23:00 +23°C° 0 mm 2 mps 686 mmHg 50%

    9 June, Tuesday

    Time Temperature Precipitation Wind Pressure Humidity
    00:00 +21°C° 0 mm 2 mps 686 mmHg 53%
    01:00 +20°C° 0 mm 2 mps 685 mmHg 55%
    02:00 +20°C° 0 mm 2 mps 685 mmHg 57%
    03:00 +19°C° 0 mm 2 mps 685 mmHg 59%
    04:00 +20°C° 0 mm 2 mps 686 mmHg 58%
    05:00 +22°C° 0 mm 1 mps 686 mmHg 58%
    06:00 +22°C° 0 mm 1 mps 686 mmHg 57%
    07:00 +24°C° 0 mm 1 mps 687 mmHg 51%
    08:00 +26°C° 0 mm 1 mps 687 mmHg 46%
    09:00 +28°C° 0 mm 1 mps 687 mmHg 41%
    10:00 +29°C° 0 mm 1 mps 687 mmHg 36%
    11:00 +31°C° 0 mm 1 mps 687 mmHg 32%
    12:00 +32°C° 0 mm 1 mps 687 mmHg 28%
    13:00 +33°C° 0 mm 1 mps 687 mmHg 26%
    14:00 +34°C° 0 mm 2 mps 687 mmHg 25%
    15:00 +35°C° 0 mm 2 mps 687 mmHg 24%
    16:00 +34°C° 0.1 mm 3 mps 687 mmHg 29%
    17:00 +31°C° 0.1 mm 3 mps 687 mmHg 34%
    18:00 +30°C° 0.1 mm 4 mps 687 mmHg 39%
    19:00 +27°C° 0.5 mm 3 mps 687 mmHg 48%
    20:00 +24°C° 0.5 mm 3 mps 687 mmHg 57%
    21:00 +21°C° 0.5 mm 2 mps 688 mmHg 65%
    22:00 +20°C° 0.4 mm 2 mps 687 mmHg 67%
    23:00 +21°C° 0.4 mm 1 mps 687 mmHg 69%

    10 June, Wednesday

    Time Temperature Precipitation Wind Pressure Humidity
    00:00 +20°C° 0.4 mm 1 mps 687 mmHg 71%
    01:00 +20°C° 0.2 mm 1 mps 687 mmHg 72%
    02:00 +20°C° 0.2 mm 1 mps 687 mmHg 72%
    03:00 +19°C° 0.2 mm 1 mps 686 mmHg 73%
    04:00 +20°C° 0 mm 1 mps 687 mmHg 71%
    05:00 +20°C° 0 mm 1 mps 687 mmHg 68%
    06:00 +21°C° 0 mm 1 mps 687 mmHg 66%
    07:00 +23°C° 0 mm 1 mps 687 mmHg 60%
    08:00 +24°C° 0 mm 1 mps 688 mmHg 54%
    09:00 +26°C° 0 mm 2 mps 688 mmHg 49%
    10:00 +28°C° 0.1 mm 1 mps 688 mmHg 44%
    11:00 +29°C° 0.1 mm 1 mps 688 mmHg 39%
    12:00 +30°C° 0.1 mm 1 mps 688 mmHg 35%
    13:00 +31°C° 0.1 mm 1 mps 688 mmHg 33%
    14:00 +32°C° 0.1 mm 1 mps 688 mmHg 30%
    15:00 +33°C° 0.1 mm 1 mps 688 mmHg 28%
    16:00 +32°C° 0 mm 1 mps 687 mmHg 30%
    17:00 +32°C° 0 mm 2 mps 687 mmHg 33%
    18:00 +31°C° 0 mm 2 mps 687 mmHg 35%
    19:00 +29°C° 0.1 mm 3 mps 687 mmHg 40%
    20:00 +27°C° 0.1 mm 3 mps 688 mmHg 44%
    21:00 +23°C° 0.1 mm 4 mps 688 mmHg 49%
    22:00 +22°C° 0.4 mm 3 mps 688 mmHg 54%
    23:00 +21°C° 0.4 mm 2 mps 687 mmHg 59%
    Show more